Location: Chandolas
(44.4033°N, 4.2533°E)
Time: 18:34:51
(UTC+00:00)

Lacrosse 5 - Pass Details

Date: 15 November 2019
Orbit: 715 x 724 km, 57.0° (Epoch: 04 December)

Event Time Altitude Azimuth Distance (km) Brightness Sun altitude
Exits shadow 03:05:52 21° 76° (ENE) 1,579 4.1 -37.8°
Drops below altitude 10° 03:07:48 10° 62° (ENE) 2,203 5.1 -37.5°
Sets 03:10:20 0° 54° (NE) 3,126 6.0 -37.1°
